Flag for U.S.A. Weather past 2 weeks in Barnstable, Massachusetts, U.S.A.

Now
70 °F

Sunny.


Feels Like: 74 °F
Forecast: 65 / 79 °F
Wind: 14 mph from Southwest

Location: Barnstable Municipal-Boardman Airport

Current Time: Jul 25, 2014 at 10:06:36 PM

Latest Report: Jul 25, 2014 at 8:56 PM


Visibility: 10 mi

Pressure: 29.98 "Hg

Humidity: 71%

Dew point: 60 °F

Location of BarnstableLocation

Historic Weather in Barnstable — Graph

°F

Barnstable temperature yesterday

Maximum temperature yesterday: 76 °F (at 8:56 AM)
Minimum temperature yesterday: 62 °F (at 11:56 PM)
Average temperature yesterday: 70 °F

Past Weeks' High & Low Weather Summary

 TemperatureHumidityPressure
High80 °F (Jul 23, 11:56 AM)97% (Jul 15, 2:56 AM)30.26 "Hg (Jul 15, 2:56 AM)
Low57 °F (Jul 19, 3:56 AM)37% (Jul 25, 2:56 PM)29.73 "Hg (Jul 24, 1:56 AM)
Average71 °F80%30.03 "Hg
* Reported Jul 10 8:56 PM — Jul 25 8:56 PM, Barnstable, Weather by CustomWeather, © 2014

Note: Actual official high and low records may vary slightly from our data, if they occured in-between our weather recording intervals... More about our weather records

Advertising

Barnstable weather history for previous 24 hours

 ConditionsComfort  
Time TempWeatherWind HumidityBarometerVisibility
8:56 PM
Jul 25
70 °FSunny.14 mph71%29.98 "Hg10 mi
7:56 PM71 °FSunny.8 mph68%29.96 "Hg10 mi
6:56 PM73 °FSunny.9 mph64%29.95 "Hg10 mi
5:56 PM74 °FSunny.10 mph56%29.96 "Hg10 mi
4:56 PM76 °FSunny.No wind39%29.94 "Hg10 mi
3:56 PM76 °FSunny.5 mph39%29.95 "Hg10 mi
2:56 PM76 °FSunny.6 mph37%29.94 "Hg10 mi
1:56 PM74 °FSunny.9 mph48%29.95 "Hg10 mi
12:56 PM74 °FSunny.7 mph52%29.96 "Hg10 mi
11:56 AM72 °FSunny.8 mph64%29.96 "Hg10 mi
10:56 AM71 °FSunny.13 mph66%29.97 "Hg10 mi
9:56 AM71 °FSunny.9 mph68%29.95 "Hg10 mi
8:56 AM69 °FScattered clouds.10 mph76%29.94 "Hg10 mi
7:56 AM66 °FSunny.12 mph78%29.92 "Hg10 mi
6:56 AM64 °FSunny.8 mph78%29.92 "Hg10 mi
5:56 AM65 °FClear.6 mph76%29.91 "Hg10 mi
4:56 AM64 °FClear.7 mph90%29.90 "Hg10 mi
3:56 AM65 °FClear.5 mph91%29.88 "Hg10 mi
2:56 AM65 °FPassing clouds.3 mph94%29.88 "Hg10 mi
1:56 AM65 °FLow clouds.5 mph94%29.88 "Hg8 mi
12:56 AM61 °FClear.No wind93%29.87 "Hg10 mi
11:56 PM
Jul 24
62 °FPassing clouds.No wind93%29.88 "Hg10 mi
10:56 PM63 °FPassing clouds.No wind93%29.88 "Hg10 mi
Weather by CustomWeather, © 2014

See weather overviewHow to use our weather pages